Regional Weather Roundup
Issued by NWS Green Bay, WI

Home | Current Version | Previous Version | Graphics & Text | Print | Product List | Glossary Off
Versions: 1 2 3 4 5 6 7 8 9 10 11 12 13 14 15 16 17 18 19 20 21 22 23 24 25 26 27 28 29 30 31 32 33 34 35 36 37 38 39 40 41 42 43 44 45 46 47 48 49 50

000
ASUS43 KGRB 080411
RWRGRB

NORTH-CENTRAL AND NORTHEAST WISCONSIN REGIONAL WEATHER ROUNDUP
NATIONAL WEATHER SERVICE GREEN BAY WI
1100 PM CDT TUE JUL 07 2015

WIZ005-009-010>012-018-019-080500-
NORTH CENTRAL WISCONSIN

CITY           SKY/WX    TMP DP  RH WIND       PRES   REMARKS
IRONWOOD       CLEAR     48  48 100 CALM      30.10S
MANITOWISH WTR CLEAR     46  46 100 CALM      30.13S
ARBOR VITAE    CLEAR     52  49  91 CALM      30.13F
EAGLE RIVER    CLEAR     46  46 100 CALM      30.13S
LAND O LAKES   CLEAR     44  43  97 CALM      30.14S
RHINELANDER    CLEAR     47  45  93 CALM      30.14S
PHILLIPS         N/A     48  47  99 CALM      30.13S
ANTIGO         CLEAR     50  49  98 CALM      30.14S
TOMAHAWK       CLEAR     46  45  96 CALM      30.14S
MERRILL        CLEAR     50  49  97 CALM      30.14R
$$

WIZ013-073-080500-
NORTHEAST WISCONSIN

CITY           SKY/WX    TMP DP  RH WIND       PRES   REMARKS
IRON MOUNTAIN  CLEAR     49  45  86 CALM      30.11R
MARINETTE      CLEAR     54  48  82 CALM      30.11R
OCONTO         CLEAR     51  51 100 CALM      30.11S
$$

WIZ017-030-035>037-045-080500-
CENTRAL WISCONSIN

CITY           SKY/WX    TMP DP  RH WIND       PRES   REMARKS
MEDFORD        CLEAR     49  47  93 CALM      30.13F
WAUSAU         CLEAR     56  48  74 CALM      30.11R
MOSINEE        CLEAR     54  46  76 NE3       30.13S
MARSHFIELD     CLEAR     57  49  74 CALM      30.12S
WISC RAPIDS    CLEAR     55  50  83 CALM      30.13R
STEVENS POINT  CLEAR     51  50  94 CALM      30.12S
WAUPACA        CLEAR     55  54  95 CALM      30.12S
SHAWANO        CLEAR     55  52  88 CALM      30.11S
CLINTONVILLE   CLEAR     54  50  87 CALM      30.11S
$$

WIZ038-039-048-051-080500-
FOX VALLEY

CITY           SKY/WX    TMP DP  RH WIND       PRES   REMARKS
NWS GREEN BAY  CLEAR     56  51  84 S3        30.12R
APPLETON       PTCLDY    59  46  63 CALM      30.12R
OSHKOSH        CLEAR     54  49  83 S7        30.11S
FOND DU LAC    CLEAR     54  51  90 S5        30.13R
$$

WIZ022-050-052-080500-
EAST CENTRAL WISCONSIN

CITY           SKY/WX    TMP DP  RH WIND       PRES   REMARKS
STURGEON BAY   CLEAR     52  45  76 S3        30.14S
MANITOWOC      CLEAR     52  50  93 MISG      30.13R
SHEBOYGAN      CLEAR     52  50  93 CALM      30.12S
$$

LMZ563-521-522-541>543-080500-
LAKESHORE

STATION/POSITION TIME  TEMP    WIND        PRES    VSBY  WAVE
                       AIR SEA DIR/SP/G                  HT/PER
                 (UTC) (F)     (DEG/KT/KT) (MB)    (MI)  (FT/S)
SHEBOYGAN LKSHOR 0400   59     310/  2/  3 1020.4R
KEWAUNEE LKSHORE 0300   54      CALM  /  2 1019.0R
ALGOMA MARINA    0256             CALM       N/A
NORTHPORT PIER   0300   56        CALM     1019.3R
N MID LAKE BUOY  0350   54 51   CALM  /  2 1019.5R         1/ 4
S GREEN BAY BUOY 0400   62 68  130/  8/ 10 1021.1R
SISTER BAY LKSHO 0329   54        CALM       N/A
CHAMBERS ISLAND  0300   63      40/  7/ 12 1019.3R
MENOMINEE LKSHOR 0312   64      60/  9/ 10 1020.0R
$$


USA.gov is the U.S. government's official web portal to all federal, state and local government web resources and services.